Hourly Data Report for September 03, 2017

All times are specified in Local Standard Time (LST). Add 1 hour to adjust for Daylight Saving Time where and when it is observed.

GJOA HAVEN A
NUNAVUT

68°38'08.000" N
95°51'01.000" W
46.90 m
2302337
71597
YHK

Download Data

Hourly Data (September 2017)
Hourly Data Report for September 3, 2017
Temp Definition
°C
Dew Point Temp Definition
°C
Rel Hum Definition
%
Wind Dir Definition
10's deg

Wind Spd Definition
km/h
Visibility Definition
km
Stn Press Definition
kPa
Hmdx Definition


Wind Chill Definition


Weather Definition


TIME
00:00 Legend Double Dagger 1.7 0.6 93 5 18 16.1 100.74     LegendNANA
01:00 Legend Double Dagger 1.2 0.5 95 5 22 16.1 100.75     LegendNANA
02:00 Legend Double Dagger 0.7 0.4 98 8 21 16.1 100.75     LegendNANA
03:00 Legend Double Dagger 1.2 1.1 99 6 21 16.1 100.77     LegendNANA
04:00 Legend Double Dagger 0.9 0.5 97 5 18 16.1 100.78     LegendNANA
05:00 Legend Double Dagger 0.8 0.5 98 7 18 16.1 100.80     LegendNANA
06:00 Legend Double Dagger 0.7 0.4 98 5 17 16.1 100.81     LegendNANA
07:00 Legend Double Dagger 0.6 0.3 98 5 18 16.1 100.83     LegendNANA
08:00 Legend Double Dagger 0.6 0.3 98 6 13 16.1 100.84     LegendNANA
09:00 Legend Double Dagger 0.8 0.2 96 4 15 16.1 100.83     LegendNANA
10:00 Legend Double Dagger 1.4 0.4 93 5 13 16.1 100.84     LegendNANA
11:00 Legend Double Dagger 1.8 0.3 90 6 13 16.1 100.86     LegendNANA
12:00 Legend Double Dagger 2.2 0.5 89 4 18 16.1 100.86     LegendNANA
13:00 Legend Double Dagger 2.3 0.4 87 4 18 16.1 100.88     LegendNANA
14:00 Legend Double Dagger 2.2 0.2 87 4 17 16.1 100.91     LegendNANA
15:00 Legend Double Dagger 2.1 0.0 86 4 22 16.1 100.93     LegendNANA
16:00 Legend Double Dagger 1.8 0.2 89 5 17 16.1 100.95     LegendNANA
17:00 Legend Double Dagger 1.7 0.1 89 7 11 16.1 100.96     LegendNANA
18:00 Legend Double Dagger 1.7 0.2 90 6 15 16.1 101.00     LegendNANA
19:00 Legend Double Dagger 1.4 -0.1 90 7 9 16.1 101.02     LegendNANA
20:00 Legend Double Dagger 1.5 0.5 93 6 11 16.1 101.02     LegendNANA
21:00 Legend Double Dagger 1.0 -0.2 92 34 8 16.1 101.03     LegendNANA
22:00 Legend Double Dagger 0.7 -0.3 93 2 5 16.1 101.05     LegendNANA
23:00 Legend Double Dagger 0.3 -0.6 94 30 8 16.1 101.08     LegendNANA

Notes on Data Quality.

Legend

  • E = Estimated
  • M = Missing
  • NA = Not Available
  • ‡ = Partner data that is not subject to review by the National Climate Archives
Date modified: